Regional Weather Roundup
Issued by NWS

Home | Current Version | Previous Version | Text Only | Print | Product List | Glossary On
Versions: 1 2 3 4 5 6 7 8 9 10 11 12 13 14 15 16 17 18 19 20 21 22 23 24 25 26 27 28 29 30 31 32 33 34 35 36 37 38 39 40 41 42 43 44 45 46 47 48 49 50
931
ASUS44 KLIX 230910
RWRLA
LOUISIANA WEATHER ROUNDUP
NATIONAL WEATHER SERVICE NEW ORLEANS LA
400 AM CDT WED JUL 23 2014

NOTE: "FAIR" INDICATES FEW OR NO CLOUDS BELOW 12,000 FEET WITH NO
      SIGNIFICANT WEATHER AND/OR OBSTRUCTIONS TO VISIBILITY.
      SKY/WX - SKY CONDITION AND SIGNIFICANT WEATHER.
      TMP - AIR TEMPERATURE.    DP   - DEWPOINT TEMPERATURE.
      RH  - RELATIVE HUMIDITY.  PRES - PRESSURE.
      HX  - HEAT INDEX.         WCI  - WIND CHILL INDEX.

*  THESE STATIONS ARE NOT NWS OR FAA STATIONS AND ARE NOT UNDER
   NWS QUALITY CONTROL.

LAZ040-048-061>063-065-066-069-231000-
SOUTHEAST LOUISIANA

CITY           SKY/WX    TMP DP  RH WIND       PRES   REMARKS
N.O. AUDUBON     N/A     79  73  82 MISG        N/A
N.O. INTL ARPT MOCLDY    78  73  84 NE7       30.00F
N.O. LAKEFRONT PTCLDY    78  73  84 NE10      30.00F
N.O. DOWNTOWN* FAIR      77  70  78 NE7       30.00F
SLIDELL        PTCLDY    71  68  90 N5        30.01S
BATON ROUGE    CLEAR     71  69  93 NE5       30.02S
BOOTHVILLE     MOCLDY    79  76  90 S5        30.00F
BELLE CHASSE   MOCLDY    76  72  87 NE5       30.00S
BOGALUSA*      FOG       70  66  89 CALM      30.04S VSB 1/2
GALLIANO*      NOT AVBL
NEW ROADS*     FAIR      72  71  96 CALM      30.02S
GONZALES*      FAIR      73  73 100 CALM      30.00F
HAMMOND*       CLEAR     70  68  94 CALM      30.03S
HOUMA*         PTCLDY    74  70  87 CALM      29.99F
PORT FOURCHON* SUNNY     79  73  83 CALM      30.01R

$$

LAZ041-044-053-054-231000-
SOUTHWEST LOUISIANA

CITY           SKY/WX    TMP DP  RH WIND       PRES   REMARKS
LAKE CHARLES   CLEAR     76  73  91 NE5       30.01S
LAFAYETTE      PTCLDY    75  72  90 CALM      30.01S
PATTERSON      CLEAR     75  73  94 NE6       30.03S
SALT POINT       N/A     79  76  90 CALM      29.98F
NEW IBERIA     PTCLDY    76  73  91 NE6       30.01R
CHENAULT AIRPK CLEAR     75  72  89 CALM      30.02S

$$

LAZ027-028-231000-
CENTRAL LOUISIANA

CITY           SKY/WX    TMP DP  RH WIND       PRES   REMARKS
FORT POLK      CLEAR     74  72  93 CALM      30.03S
ALEXANDRIA INT CLEAR     73  72  96 CALM      30.02R FOG
ALEXANDRIA     CLEAR     73  69  87 CALM      30.04R FOG

$$

LAZ001-002-231000-
NORTHWEST LOUISIANA

CITY           SKY/WX    TMP DP  RH WIND       PRES   REMARKS
SHREVEPORT     CLEAR     73  70  90 CALM      30.04S
BARKSDALE AFB  CLEAR     72  71  98 CALM      30.05S
DTN SHREVEPORT CLEAR     73  70  90 CALM      30.05S

$$

LAZ014-016-231000-
NORTHEAST LOUISIANA

CITY           SKY/WX    TMP DP  RH WIND       PRES   REMARKS
MONROE         CLEAR     73  70  90 CALM      30.05F
TALLULAH       CLEAR     71  69  93 CALM      30.04S FOG

$$




USA.gov is the U.S. government's official web portal to all federal, state and local government web resources and services.